This is the latest recevied weather packets stored in our database for station/object KO4IDC-13. If no packets are shown the sender has not sent any weather packets the latest 10 day(s).
| Time | Temp. | Humidity | Pressure | Rain* | Wind** | Luminosity | Snow |
|---|---|---|---|---|---|---|---|
| 1777551700 | 11.11° C | 71% | 1020.5 hPa | 0 mm | - | 125 W/m² | - |
| 1777551398 | 10.56° C | 72% | 1020.8 hPa | 0 mm | - | 112 W/m² | - |
| 1777550791 | 10.56° C | 72% | 1020.4 hPa | 0 mm | - | 88 W/m² | - |
| 1777549880 | 10° C | 75% | 1020.2 hPa | 0 mm | - | 59 W/m² | - |
| 1777548666 | 9.44° C | 76% | 1019.9 hPa | 0 mm | - | 28 W/m² | - |
| 1777548061 | 8.89° C | 76% | 1019.8 hPa | 0 mm | - | 17 W/m² | - |
| 1777547452 | 8.89° C | 78% | 1020 hPa | 0 mm | - | 10 W/m² | - |
| 1777546847 | 8.33° C | 78% | 1019.8 hPa | 0 mm | - | 5 W/m² | - |
| 1777546543 | 8.33° C | 78% | 1019.5 hPa | 0 mm | - | 3 W/m² | - |
| 1777545937 | 8.33° C | 80% | 1019.4 hPa | 0 mm | - | 1 W/m² | - |
| 1777545330 | 8.33° C | 79% | 1019.2 hPa | 0 mm | - | 0 W/m² | - |
| 1777545028 | 8.89° C | 78% | 1019.3 hPa | 0 mm | - | 0 W/m² | - |
| 1777544725 | 8.89° C | 78% | 1019.2 hPa | 0 mm | - | 0 W/m² | - |
| 1777544421 | 8.89° C | 78% | 1019.2 hPa | 0 mm | - | 0 W/m² | - |
| 1777544117 | 8.89° C | 79% | 1019.2 hPa | 0 mm | - | 0 W/m² | - |
| 1777543815 | 8.89° C | 78% | 1019.1 hPa | 0 mm | - | 0 W/m² | - |
| 1777543510 | 8.89° C | 78% | 1019.1 hPa | 0 mm | - | 0 W/m² | - |
| 1777542599 | 8.89° C | 78% | 1018.8 hPa | 0 mm | - | 0 W/m² | - |
| 1777542295 | 8.89° C | 78% | 1018.9 hPa | 0 mm | - | 0 W/m² | - |
| 1777541993 | 8.89° C | 77% | 1018.8 hPa | 0 mm | - | 0 W/m² | - |
| 1777541690 | 8.89° C | 77% | 1018.9 hPa | 0 mm | - | 0 W/m² | - |
| 1777541386 | 8.89° C | 76% | 1018.8 hPa | 0 mm | - | 0 W/m² | - |
| 1777541081 | 9.44° C | 75% | 1019 hPa | 0 mm | - | 0 W/m² | - |
| 1777540779 | 9.44° C | 75% | 1019 hPa | 0 mm | - | 0 W/m² | - |
| 1777540477 | 9.44° C | 75% | 1019.1 hPa | 0 mm | - | 0 W/m² | - |
* Rain latest hour (hover to see other rain measurements)
** Current wind speed in m/s (hover to see current wind gust speed)